Jacksonville NAS, FL

12:25 AM EDT on May 26, 2017 (GMT -0400)
Jacksonville Naval Air Station

Weather History for KNIP - December, 2013

Change the Weather History Date:

Sunday, December 15, 2013

  Actual Average Record
Temperature  
Mean Temperature 58 °F -  
Max Temperature 66 °F 63 °F 77 °F (2001)
Min Temperature 50 °F 46 °F 32 °F (2010)
Degree Days  
Heating Degree Days 6    
Growing Degree Days 8 (Base 50)    
Moisture  
Dew Point 55 °F    
Average Humidity 81    
Maximum Humidity 93    
Minimum Humidity 66    
Precipitation  
Precipitation 0.33 in - - ()
Sea Level Pressure  
Sea Level Pressure 29.99 in    
Wind  
Wind Speed 9 mph (WNW)    
Max Wind Speed 24 mph    
Max Gust Speed 37 mph    
Visibility 9 miles    
Events Rain    
Averages and records for this station are not official NWS values.
T = Trace of Precipitation, MM = Missing Value Source: NWS Daily Summary

Daily Weather History Graph

Daily Weather History Graph

Search for Another Location

Airport or City:

Trip Planner

Search our weather history database for the weather conditions in past years. The results will help you decide how hot, cold, wet, or windy it might be!

Date:

Astronomy

Dec. 15, 2013 Rise Set
Actual Time 7:15 AM EST 5:28 PM EST
Civil Twilight 6:49 AM EST 5:54 PM EST
Nautical Twilight 6:19 AM EST 6:24 PM EST
Astronomical Twilight 5:50 AM EST 6:54 PM EST
Moon 4:27 PM EST (12/15) 5:35 AM EST (12/15)
Length of Visible Light 11h 05m
Length of Day
10h 12m
Waxing Gibbous, 97% of the Moon is Illuminated
Dec 15
Waxing Gibbous
Dec 17
Full
Dec 25
Last Quarter
Jan 1
New
Jan 7
First Quarter

Hourly Weather History & Observations

Time (EST) Temp. Dew Point Humidity Pressure Visibility Wind Dir Wind Speed Gust Speed Precip Events Conditions
12:31 AM 66.9 °F 64.9 °F 93% 29.91 in 5.0 mi South 10.4 mph - 0.11 in Rain Heavy Rain
12:53 AM 66.9 °F 64.0 °F 90% 29.89 in 7.0 mi South 10.4 mph - 0.16 in Rain Rain
1:53 AM 66.0 °F 64.0 °F 93% 29.87 in 10.0 mi SSW 9.2 mph - 0.02 in Rain Rain
2:53 AM 66.9 °F 64.0 °F 90% 29.86 in 10.0 mi SW 5.8 mph - 0.03 in Rain Light Rain
3:53 AM 66.9 °F 64.9 °F 93% 29.87 in 10.0 mi WSW 4.6 mph - 0.00 in   Overcast
4:26 AM 66.9 °F 64.9 °F 93% 29.89 in 3.0 mi West 6.9 mph - 0.01 in Rain Rain
4:38 AM 66.9 °F 64.9 °F 93% 29.90 in 1.8 mi NW 8.1 mph - 0.04 in Rain Rain
4:53 AM 61.0 °F 57.0 °F 87% 29.91 in 1.8 mi NNW 24.2 mph 36.8 mph 0.06 in Rain Rain
4:58 AM 61.0 °F 57.0 °F 87% 29.93 in 4.0 mi NNW 19.6 mph 33.4 mph 0.00 in Rain Light Rain
5:28 AM 62.1 °F 57.9 °F 86% 29.93 in 10.0 mi NW 6.9 mph - 0.01 in   Overcast
5:53 AM 62.1 °F 57.9 °F 86% 29.93 in 10.0 mi NW 6.9 mph - 0.01 in Rain Light Rain
6:53 AM 60.1 °F 55.9 °F 86% 29.95 in 10.0 mi NW 4.6 mph - 0.03 in Rain Light Rain
7:53 AM 61.0 °F 57.0 °F 87% 29.96 in 10.0 mi Calm Calm - 0.00 in Rain Light Rain
8:53 AM 62.1 °F 57.0 °F 84% 29.99 in 7.0 mi South 5.8 mph - 0.01 in Rain Rain
9:53 AM 62.1 °F 57.9 °F 86% 30.02 in 10.0 mi WSW 5.8 mph - 0.01 in   Overcast
10:53 AM 63.0 °F 57.9 °F 84% 30.00 in 10.0 mi SSW 5.8 mph - N/A   Mostly Cloudy
11:53 AM 64.0 °F 57.9 °F 80% 29.99 in 10.0 mi SW 5.8 mph - 0.00 in Rain Light Rain
12:53 PM 64.9 °F 57.0 °F 75% 29.97 in 10.0 mi WNW 8.1 mph - 0.00 in   Mostly Cloudy
1:53 PM 66.0 °F 57.0 °F 73% 29.97 in 10.0 mi NW 10.4 mph - N/A   Mostly Cloudy
2:53 PM 66.0 °F 55.0 °F 68% 29.98 in 10.0 mi West 13.8 mph - N/A   Mostly Cloudy
3:53 PM 63.0 °F 53.1 °F 70% 29.99 in 10.0 mi NW 11.5 mph - N/A   Mostly Cloudy
4:53 PM 61.0 °F 52.0 °F 72% 30.00 in 10.0 mi WNW 12.7 mph - N/A   Mostly Cloudy
5:53 PM 59.0 °F 51.1 °F 75% 30.03 in 10.0 mi WNW 8.1 mph - N/A   Mostly Cloudy
6:53 PM 57.0 °F 48.0 °F 72% 30.06 in 10.0 mi NW 15.0 mph - N/A   Mostly Cloudy
7:53 PM 54.0 °F 44.1 °F 69% 30.10 in 10.0 mi NW 11.5 mph - N/A   Mostly Cloudy
7:59 PM 53.1 °F 43.0 °F 69% 30.12 in 10.0 mi NW 15.0 mph - N/A   Mostly Cloudy
8:53 PM 52.0 °F 42.1 °F 69% 30.13 in 10.0 mi NW 9.2 mph - N/A   Mostly Cloudy
9:53 PM 51.1 °F 42.1 °F 71% 30.15 in 10.0 mi NW 9.2 mph - N/A   Mostly Cloudy
10:53 PM 51.1 °F 39.9 °F 66% 30.17 in 10.0 mi NW 8.1 mph - N/A   Mostly Cloudy
11:53 PM 50.0 °F 39.9 °F 68% 30.18 in 10.0 mi NW 10.4 mph - N/A   Mostly Cloudy